Buffalo, NY

6:38 PM EDT on June 21, 2018 (GMT -0400)
Buffalo Niagara International

Weather History for KBUF - August, 2017

Change the Weather History Date:

Sunday, August 20, 2017

  Actual Average Record
Temperature  
Mean Temperature 70 °F 69 °F  
Max Temperature 79 °F 78 °F 90 °F (1959)
Min Temperature 60 °F 61 °F 47 °F (1977)
Degree Days  
Heating Degree Days 0 1  
Month to date heating degree days 0 5  
Since 1 June heating degree days 50 78  
Since 1 July heating degree days 1 14  
Cooling Degree Days 5 5  
Month to date cooling degree days 117 114  
Year to date cooling degree days 450 440  
Since 1 June cooling degree days 423 414  
Growing Degree Days 20 (Base 50)    
Moisture  
Dew Point 60 °F    
Average Humidity 72    
Maximum Humidity 90    
Minimum Humidity 54    
Precipitation  
Precipitation 0.00 in 0.10 in 1.72 in (1993)
Month to date precipitation 2.58 2.13  
Year to date precipitation 31.71 24.03  
Snow  
Snow 0.00 in 0.00 in 0.00 in ()
Month to date snowfall 0.0 0.0  
Since 1 June snowfall 0.0 0.0  
Since 1 July snowfall 0.0 0.0  
Snow Depth 0.00 in    
Sea Level Pressure  
Sea Level Pressure 30.07 in    
Wind  
Wind Speed 10 mph (SW)    
Max Wind Speed 21 mph    
Max Gust Speed 26 mph    
Visibility 10 miles    
Events      
T = Trace of Precipitation, MM = Missing Value Source: NWS Daily Summary

Daily Weather History Graph

Daily Weather History Graph

Search for Another Location

Airport or City:

Astronomy

Aug. 20, 2017 Rise Set
Actual Time 6:26 AM EDT 8:08 PM EDT
Civil Twilight 5:56 AM EDT 8:39 PM EDT
Nautical Twilight 5:19 AM EDT 9:15 PM EDT
Astronomical Twilight 4:40 AM EDT 9:54 PM EDT
Moon 4:59 AM EDT (8/20) 7:33 PM EDT (8/20)
Length of Visible Light 14h 42m
Length of Day
13h 42m
Waning Crescent, 2% of the Moon is Illuminated
Aug 20
Waning Crescent
Aug 21
New
Aug 29
First Quarter
Sep 6
Full
Sep 13
Last Quarter

Hourly Weather History & Observations

Time (EDT) Temp. Dew Point Humidity Pressure Visibility Wind Dir Wind Speed Gust Speed Precip Events Conditions
12:54 AM 64.0 °F 55.9 °F 75% 29.98 in 10.0 mi West 5.8 mph - N/A   Partly Cloudy
1:54 AM 63.0 °F 55.9 °F 78% 30.00 in 10.0 mi WSW 4.6 mph - N/A   Clear
2:54 AM 62.1 °F 55.9 °F 80% 30.00 in 10.0 mi WSW 4.6 mph - N/A   Clear
3:54 AM 62.1 °F 55.9 °F 80% 30.01 in 10.0 mi WSW 3.5 mph - N/A   Partly Cloudy
4:54 AM 61.0 °F 55.9 °F 83% 30.02 in 10.0 mi SW 3.5 mph - N/A   Mostly Cloudy
5:54 AM 62.1 °F 55.9 °F 80% 30.03 in 10.0 mi SSE 4.6 mph - N/A   Partly Cloudy
6:54 AM 62.1 °F 59.0 °F 90% 30.06 in 10.0 mi South 5.8 mph - N/A   Mostly Cloudy
7:54 AM 64.9 °F 60.1 °F 84% 30.06 in 10.0 mi South 8.1 mph - N/A   Mostly Cloudy
8:54 AM 69.1 °F 61.0 °F 75% 30.07 in 10.0 mi SSW 9.2 mph - N/A   Scattered Clouds
9:54 AM 73.0 °F 64.0 °F 73% 30.07 in 10.0 mi SW 12.7 mph - N/A   Scattered Clouds
10:54 AM 73.9 °F 64.9 °F 73% 30.09 in 10.0 mi SW 16.1 mph 23.0 mph N/A   Scattered Clouds
11:54 AM 75.9 °F 66.9 °F 74% 30.10 in 10.0 mi SW 15.0 mph - N/A   Mostly Cloudy
12:54 PM 78.1 °F 64.9 °F 64% 30.09 in 10.0 mi SW 13.8 mph - N/A   Scattered Clouds
1:54 PM 77.0 °F 66.0 °F 69% 30.10 in 10.0 mi SW 16.1 mph - N/A   Partly Cloudy
2:54 PM 79.0 °F 63.0 °F 58% 30.10 in 10.0 mi SW 18.4 mph - N/A   Partly Cloudy
3:54 PM 78.1 °F 61.0 °F 56% 30.09 in 10.0 mi SW 16.1 mph - N/A   Partly Cloudy
4:54 PM 78.1 °F 60.1 °F 54% 30.08 in 10.0 mi SW 15.0 mph 21.9 mph N/A   Partly Cloudy
5:54 PM 77.0 °F 60.1 °F 56% 30.08 in 10.0 mi SW 13.8 mph - N/A   Partly Cloudy
6:54 PM 75.9 °F 59.0 °F 56% 30.08 in 10.0 mi WSW 12.7 mph - N/A   Partly Cloudy
7:54 PM 73.9 °F 61.0 °F 64% 30.09 in 10.0 mi SW 6.9 mph - N/A   Scattered Clouds
8:54 PM 70.0 °F 63.0 °F 78% 30.10 in 10.0 mi SSW 6.9 mph - N/A   Scattered Clouds
9:54 PM 69.1 °F 61.0 °F 75% 30.12 in 10.0 mi South 6.9 mph - N/A   Partly Cloudy
10:54 PM 68.0 °F 59.0 °F 73% 30.12 in 10.0 mi South 8.1 mph - N/A   Partly Cloudy
11:54 PM 66.0 °F 57.9 °F 75% 30.12 in 10.0 mi South 5.8 mph - N/A   Clear